Location: Colle Santa Colomba
(42.0333°N, 12.5667°E)
Time: 03:53:50
(UTC+00:00)

CSL-04 Debris - Pass Details

Date: 25 October 2021
Orbit: 827 x 847 km, 98.9° (Epoch: 28 November)

Event Time Altitude Azimuth Distance (km) Brightness Sun altitude
Exits shadow 18:28:31 72° 121° (ESE) 873 4.0 -25.8°
Maximum altitude 18:28:56 78° 74° (ENE) 854 4.0 -25.9°
Drops below altitude 10° 18:34:22 10° 349° (N) 2,453 6.8 -26.9°
Sets 18:36:44 0° 348° (NNW) 3,394 7.6 -27.3°
